7 * 24
多渠道服务支持
JILIN-1 KUANFU 02A 是吉林一号宽幅02A卫星,由中国长光卫星技术有限公司研制,是吉林一号卫星星座的重要组成部分。该卫星主要用于高分辨率遥感影像获取,具备宽幅成像能力,适用于农业、林业、城市规划、灾害监测等多个领域。其发射进一步提升了吉林一号星座的数据获取能力和应用广度,为用户提供更高效、精准的遥感服务。
数据来源 | 国际轨道数据 |
星历时间: | 2025-09-27T18:26:43+0800 轨道信息已过期20天 |
半长轴: | 6910.107km |
偏心率: | 0.0017188 |
轨道倾角: | 97.563° |
近地点辐角 | 141.709° |
升交点赤经 | 2.697° |
平近点角 | 218.537° |
近地点: | 520.094km |
远地点: | 543.85km |
周期: | 95.277分钟 |
每日圈数: | 15.113868 |